Regional Weather Roundup
Issued by NWS New Orleans/Baton Rouge, LA

Home | Current Version | Previous Version | Graphics & Text | Print | Product List | Glossary On
Versions: 1 2 3 4 5 6 7 8 9 10 11 12 13 14 15 16 17 18 19 20 21 22 23 24 25 26 27 28 29 30 31 32 33 34 35 36 37 38 39 40 41 42 43 44 45 46 47 48 49 50
731
ASUS44 KLIX 190310
RWRLIX
NEW ORLEANS REGIONAL WEATHER ROUNDUP
NATIONAL WEATHER SERVICE NEW ORLEANS LA
1000 PM CDT FRI APR 18 2014

NOTE: "FAIR" INDICATES FEW OR NO CLOUDS BELOW 12,000 FEET WITH NO
      SIGNIFICANT WEATHER AND/OR OBSTRUCTIONS TO VISIBILITY.
      SKY/WX - SKY CONDITION AND SIGNIFICANT WEATHER.
      TMP - AIR TEMPERATURE.     DP    - DEWPOINT TEMPERATURE.
      RH  - RELATIVE HUMIDITY.   PRES  - PRESSURE.
      HI  - HEAT INDEX.          WCI   - WIND CHILL INDEX.

*  THESE STATIONS ARE NOT NWS OR FAA STATIONS AND ARE NOT UNDER
   NWS QUALITY CONTROL.

LAZ038-040-048-061>063-065>067-069-190400-
SOUTHEAST LOUISIANA

CITY           SKY/WX    TMP DP  RH WIND       PRES   REMARKS
N.O. AUDUBON     N/A     65  56  72 MISG        N/A
N.O. INTL ARPT PTCLDY    64  55  72 NE9       30.13R
N.O. LAKEFRONT CLEAR     64  57  78 NE17      30.13R
N.O. DOWNTOWN*   N/A     64  52  63 N9        30.12R
SLIDELL        CLEAR     60  54  80 NE6       30.11R
BATON ROUGE    CLEAR     61  58  90 NE6       30.13R
BOOTHVILLE     PTCLDY    62  57  83 N12G22    30.09R
BELLE CHASSE   PTCLDY    62  54  74 NE9       30.11R
BOGALUSA*        N/A     61  55  78 NE7       30.14R
GALLIANO*      CLEAR     65  56  74 N9        30.12R
NEW ROADS*     MOCLDY    61  60  97 CALM      30.14R
GONZALES*        N/A     64  58  82 CALM      30.13R
HAMMOND*       CLEAR     63  54  72 CALM      30.15R
HOUMA*           N/A     63  55  75 N7        30.13R
PORT FOURCHON* CLEAR     64  57  77 NE9G17    30.13R

$$

MSZ070-080>082-190400-
SOUTHERN MISSISSIPPI

CITY           SKY/WX    TMP DP  RH WIND       PRES   REMARKS
MCCOMB         CLEAR     61  54  77 VRB3      30.13R
GULFPORT       PTCLDY    62  52  69 N8        30.10R
BILOXI         MOCLDY    60  54  80 N9        30.10R
PASCAGOULA     MOCLDY    59  54  83 N9        30.10R

$$

COASTAL OBSERVATIONS
LAKE AND NEARSHORE STATIONS

STATION/POSITION TIME  TEMP    WIND        PRES    WAVE
                       AIR SEA DIR/SP/G            HT/PER
                 (UTC) (F)     (DEG/KT/KT) (MB)    (FT/S)
PASCAGOULA       0300   60      10/ 11/ 17 1018.2
WAVELAND YACHT   0300   62 68   30/ 15/ 17 1018.6
GRAND ISLE       0300   64 68   40/ 13/ 18 1019.4
SOUTHWEST PASS   0300   64 58   20/ 12/ 14 1018.9
NEW CANAL        0300   65 65   30/ 14/ 16 1020.1
SHELL BEACH      0300   63 63   20/ 19/ 24 1019.1

OFFSHORE STATIONS

STATION/POSITION TIME  TEMP    WIND        PRES    WAVE
                       AIR SEA DIR/SP/G            HT/PER
                 (UTC) (F)     (DEG/KT/KT) (MB)    (FT/S)
64 S DAUPHIN ISL 0250   63 71  360/ 27/ 33 1017.8

$$




USA.gov is the U.S. government's official web portal to all federal, state and local government web resources and services.